[[{"header":{"parameterUnit":"m.s-1","parameterCategory":1,"la1":30.2991,"la2":30.254,"lo1":-89.0895,"lo2":-89.0444,"dy":0.0017,"dx":0.0017,"nx":28,"ny":28,"refTime":"2025-01-18T03:00:00:Z","depth":0,"parameterNumber":2,"parameterNumberName":"U-component_of_WINDS"},"data":[0,0,0,0,0,0,0,0,0,0,0,0,0,0,0,0,0,0,0,0,0,0,0,0,0,0,0,0,0,0,0,0,0,0,0,0,0,0,0,0,0,0,0,0,0,0,0,0,0,0,0,0,0,0,0,0,0,0,1.8608,1.8608,0,1.8637,1.8637,1.8637,1.8755,1.8758,1.8761,1.8763,1.8784,1.8782,1.878,0,0,0,0,0,0,0,0,0,0,0,0,0,1.8647,1.8645,1.8607,1.8608,1.8608,1.8637,1.8637,1.8637,1.8755,1.8758,1.8762,1.8765,1.8785,1.8782,1.878,0,0,0,0,0,0,0,0,0,0,0,0,0,1.8648,1.8645,1.8607,1.8671,1.8677,1.8637,1.8637,1.8638,1.8754,1.8758,1.8762,1.8766,1.8785,1.8782,1.8779,1.8678,0,0,1.877,1.8769,0,0,0,0,0,0,0,0,1.8648,1.8646,1.8661,1.8666,1.8673,1.8697,1.8659,1.8651,1.8753,1.8724,1.8764,1.8768,1.8751,1.8751,1.8747,1.8679,1.868,1.877,1.8768,1.8767,1.8766,0,0,0,0,0,0,0,1.8647,1.8646,1.8619,1.8661,1.8668,1.8695,1.87,1.8658,1.8714,1.8727,1.8736,1.8738,1.8755,1.875,1.8748,1.868,1.877,1.8767,1.8765,1.8764,1.8533,1.8529,0,0,0,0,0,0,1.8639,1.8645,1.8618,1.862,1.867,1.8691,1.8696,1.8685,1.8715,1.8723,1.8735,1.8744,1.8753,1.8752,1.875,1.8635,1.8767,1.8764,1.8762,1.8537,1.8532,1.8527,0,0,0,0,0,0,1.864,1.8636,1.8617,1.8635,1.8634,1.8686,1.8672,1.8683,1.8678,1.8721,1.873,1.872,1.8756,1.8754,1.8696,1.8637,1.8763,1.876,1.8542,1.8536,1.853,1.8403,0,0,0,0,0,0,1.864,1.8635,1.8599,1.8633,1.8633,1.8564,1.8668,1.8681,1.8674,1.8686,1.8709,1.8717,1.8759,1.87,1.8693,1.8635,1.8757,1.8548,1.8539,1.8532,1.8413,1.8393,1.8376,0,0,0,0,0,1.8641,1.8559,1.8596,1.8592,1.8589,1.8561,1.856,1.8614,1.8669,1.8631,1.8659,1.8716,1.8645,1.8693,1.8686,1.8627,1.8552,1.8542,1.8532,1.8421,1.8397,1.8377,0,0,0,0,0,0,1.8512,1.8565,1.8606,1.8533,1.8542,1.8581,1.8536,1.8586,1.8577,1.8588,1.8652,1.8657,1.859,1.8602,1.8655,1.8531,1.8608,1.8596,1.8526,1.8503,1.8485,1.8483,1.8755,0,0,0,0,0,1.8476,1.8452,1.8498,1.8429,1.8432,1.8482,1.8472,1.8513,1.8524,1.8527,1.855,1.8556,1.8535,1.852,1.8503,1.8415,1.8422,1.8371,1.8353,1.8338,1.8326,1.8283,1.8261,1.8495,1.8495,1.8496,0,0,1.8399,1.8425,1.8405,1.8404,1.8415,1.8387,1.8485,1.8449,1.8429,1.852,1.8469,1.8486,1.8497,1.8424,1.8393,1.8433,1.8264,1.8325,1.8313,1.831,1.8271,1.8249,1.8229,1.8489,1.849,1.8491,0,0,1.8246,1.8263,1.8209,1.822,1.8238,1.8273,1.826,1.8291,1.8308,1.8258,1.8327,1.8302,1.8264,1.827,1.8267,1.8119,1.8172,1.8112,1.8016,1.7973,1.7954,1.7938,1.7887,1.7867,1.8101,1.81,1.81,0,1.8147,1.811,1.8173,1.8135,1.8133,1.8219,1.8164,1.817,1.818,1.8175,1.822,1.8178,1.819,1.8122,1.8086,1.8081,1.8067,1.8109,1.7953,1.7937,1.7923,1.7874,1.7854,1.8093,1.8094,1.8095,1.8095,0,1.7989,1.7962,1.7916,1.7928,1.792,1.7873,1.7928,1.7912,1.7954,1.7983,1.7932,1.7951,1.7941,1.7928,1.7966,1.7864,1.7889,1.7942,1.802,1.7892,1.7848,1.783,1.8083,1.8085,1.8087,1.8089,0,0,1.7753,1.7804,1.7786,1.7793,1.7821,1.78,1.7757,1.7751,1.7737,1.7741,1.7706,1.7674,1.7725,1.7723,1.7763,1.7725,1.7609,1.7784,1.7785,1.7751,1.7499,1.7459,1.7437,1.7644,1.764,1.7638,1.7499,0,1.7607,1.7541,1.7597,1.7519,1.7495,1.7578,1.7541,1.7553,1.758,1.7562,1.7591,1.7568,1.7636,1.7636,1.7602,1.763,1.7559,1.7641,1.7611,1.7609,1.7607,1.7413,1.7371,1.7238,1.7481,1.7478,1.7476,0,1.7428,1.743,1.735,1.7386,1.7378,1.7344,1.7344,1.7327,1.7342,1.7364,1.7363,1.7415,1.7374,1.7452,1.7396,1.7451,1.7442,1.7454,1.745,1.745,1.7535,1.7408,1.7197,1.7177,1.7449,1.7451,1.7453,0,1.7265,1.7246,1.7198,1.7201,1.7241,1.7216,1.7231,1.7251,1.7244,1.7244,1.724,1.7233,1.7229,1.7221,1.7269,1.7321,1.7208,1.7289,1.7225,1.7224,1.7197,1.7198,1.6982,1.719,1.719,1.7191,1.7191,0,1.7097,1.7045,1.7126,1.7095,1.7039,1.7105,1.7047,1.707,1.7088,1.7062,1.7132,1.7106,1.7171,1.7152,1.7189,1.7138,1.7135,1.7151,1.7162,1.7145,1.7143,1.7141,1.7151,1.7185,1.7187,1.7188,1.7188,0,1.6905,1.6957,1.6909,1.6953,1.6963,1.692,1.6957,1.6929,1.6963,1.693,1.6925,1.6976,1.6957,1.7005,1.6991,1.7017,1.6945,1.6969,1.6941,1.6948,1.6882,1.6888,1.6657,1.6631,1.6854,1.6852,1.685,0,1.6795,1.6758,1.6799,1.6789,1.6802,1.6783,1.6779,1.6842,1.6833,1.685,1.6821,1.6809,1.6802,1.6767,1.6802,1.6792,1.6818,1.6738,1.6817,1.6802,1.6818,1.682,1.6817,1.6721,1.6718,1.6716,1.6714,0,1.6593,1.6622,1.6614,1.6616,1.6609,1.6612,1.662,1.6607,1.6675,1.6661,1.6645,1.6641,1.663,1.6616,1.6616,1.6629,1.6682,1.669,1.6675,1.6658,1.6643,1.6652,1.6897,1.6694,1.6696,1.6698,1.6699,1.67,1.644,1.6412,1.6438,1.6427,1.6441,1.6447,1.6425,1.6458,1.6446,1.6445,1.6482,1.6458,1.6477,1.6482,1.649,1.6471,1.6507,1.6485,1.6479,1.6473,1.6463,1.6646,1.6471,1.6472,1.6472,1.6473,1.6473,0,1.6243,1.6265,1.6255,1.6266,1.6258,1.6314,1.6326,1.6314,1.6294,1.6308,1.6302,1.6284,1.6272,1.6307,1.63,1.6279,1.6303,1.6275,1.6277,1.628,1.643,1.6445,1.6255,1.6255,1.6255,1.6255,1.6255,1.6256,1.614,1.6096,1.6128,1.6092,1.6114,1.6094,1.6097,1.6103,1.6115,1.6093,1.6086,1.611,1.6133,1.6129,1.6121,1.6131,1.6126,1.6089,1.6107,1.6247,1.6269,1.6289,1.6303,1.6087,1.6087,1.5959,1.5958,1.5957]},{"header":{"parameterUnit":"m.s-1","parameterCategory":1,"la1":30.2991,"la2":30.254,"lo1":-89.0895,"lo2":-89.0444,"dy":0.0017,"dx":0.0017,"nx":28,"ny":28,"refTime":"2025-01-18T03:00:00:Z","depth":0,"parameterNumber":3,"parameterNumberName":"V-component_of_WINDS"},"data":[0,0,0,0,0,0,0,0,0,0,0,0,0,0,0,0,0,0,0,0,0,0,0,0,0,0,0,0,0,0,0,0,0,0,0,0,0,0,0,0,0,0,0,0,0,0,0,0,0,0,0,0,0,0,0,0,0,0,0.8398,0.8398,0,0.8371,0.8371,0.8371,0.8361,0.8362,0.8362,0.8362,0.8335,0.8334,0.8333,0,0,0,0,0,0,0,0,0,0,0,0,0,0.8443,0.8443,0.8398,0.8398,0.8397,0.8371,0.8371,0.8371,0.8361,0.8362,0.8362,0.8362,0.8335,0.8334,0.8333,0,0,0,0,0,0,0,0,0,0,0,0,0,0.8421,0.8442,0.8398,0.839,0.8389,0.8372,0.8371,0.8371,0.8361,0.8362,0.8362,0.8362,0.8335,0.8334,0.8333,0.8322,0,0,0.8329,0.8329,0,0,0,0,0,0,0,0,0.8422,0.8419,0.8391,0.839,0.8389,0.837,0.8377,0.8354,0.8361,0.8372,0.8362,0.8362,0.8346,0.8344,0.8339,0.8321,0.832,0.8329,0.8328,0.8328,0.8327,0,0,0,0,0,0,0,0.8424,0.842,0.8388,0.8391,0.8389,0.8388,0.8385,0.8373,0.8359,0.8371,0.837,0.8367,0.8346,0.834,0.8338,0.832,0.8329,0.8328,0.8327,0.8327,0.8296,0.8296,0,0,0,0,0,0,0.8427,0.8422,0.8388,0.8387,0.8406,0.8387,0.8384,0.8376,0.8359,0.8356,0.8367,0.8367,0.8342,0.834,0.8337,0.8326,0.8328,0.8327,0.8326,0.8296,0.8296,0.8296,0,0,0,0,0,0,0.8428,0.8424,0.8389,0.8404,0.84,0.8386,0.8377,0.8375,0.837,0.8356,0.8353,0.8364,0.8342,0.8339,0.8327,0.8325,0.8326,0.8325,0.8296,0.8296,0.8296,0.8302,0,0,0,0,0,0,0.8429,0.8424,0.8419,0.8404,0.8399,0.8379,0.8377,0.8375,0.8367,0.8367,0.8352,0.835,0.8342,0.8329,0.8326,0.8323,0.8324,0.8296,0.8296,0.8296,0.8302,0.8302,0.8303,0,0,0,0,0,0.843,0.8421,0.8419,0.8415,0.8392,0.8379,0.8376,0.8367,0.8367,0.8363,0.8355,0.835,0.8326,0.8328,0.8324,0.8321,0.8296,0.8296,0.8296,0.8302,0.8302,0.8302,0,0,0,0,0,0,0.8435,0.8419,0.8416,0.8401,0.8392,0.8377,0.8371,0.8367,0.8357,0.8357,0.8347,0.8343,0.8333,0.8326,0.8328,0.8312,0.8311,0.831,0.8317,0.8317,0.8317,0.8319,0.8323,0,0,0,0,0,0.8435,0.8425,0.8411,0.84,0.8395,0.8384,0.8378,0.8372,0.8362,0.8357,0.8348,0.8338,0.8329,0.8322,0.8312,0.8301,0.8299,0.8298,0.8298,0.8298,0.8298,0.8294,0.8294,0.8295,0.8295,0.8295,0,0,0.8434,0.8424,0.8417,0.8401,0.8392,0.8383,0.838,0.837,0.8364,0.8356,0.8344,0.8338,0.8326,0.8315,0.831,0.8309,0.8297,0.8298,0.8298,0.8298,0.8294,0.8294,0.8294,0.8295,0.8295,0.8295,0,0,0.8427,0.8417,0.8408,0.8401,0.8389,0.8382,0.838,0.8367,0.8362,0.8351,0.8345,0.8338,0.8321,0.8314,0.8308,0.8303,0.8299,0.83,0.8301,0.8297,0.8297,0.8297,0.8297,0.8297,0.8299,0.8299,0.8299,0,0.8427,0.8412,0.8404,0.8395,0.8389,0.8382,0.8374,0.8367,0.8352,0.8349,0.8348,0.8329,0.832,0.8309,0.8308,0.8303,0.8302,0.8301,0.8298,0.8298,0.8298,0.8297,0.8297,0.8299,0.8299,0.8299,0.8299,0,0.8414,0.8404,0.8398,0.8386,0.8379,0.837,0.8362,0.8356,0.8352,0.8346,0.8336,0.8326,0.8316,0.8313,0.8308,0.8302,0.8302,0.83,0.8298,0.8298,0.8298,0.8297,0.83,0.83,0.83,0.83,0,0,0.8408,0.8393,0.8391,0.8386,0.8374,0.8367,0.8359,0.835,0.8346,0.8337,0.8331,0.8319,0.8317,0.8311,0.8306,0.8303,0.8302,0.8301,0.8301,0.8303,0.8297,0.83,0.83,0.83,0.8299,0.8299,0.8299,0,0.84,0.8386,0.838,0.8369,0.8361,0.8356,0.835,0.8343,0.8338,0.8331,0.8325,0.8318,0.8315,0.8312,0.8309,0.8303,0.8301,0.8302,0.8295,0.8295,0.8299,0.8299,0.8301,0.8301,0.8298,0.8298,0.8298,0,0.8389,0.8382,0.837,0.8362,0.8358,0.8353,0.8345,0.8338,0.8331,0.8328,0.8322,0.8318,0.8311,0.8311,0.8303,0.8304,0.8301,0.8298,0.8298,0.8298,0.8297,0.83,0.83,0.83,0.8298,0.8298,0.8298,0,0.8388,0.8375,0.8367,0.8363,0.8353,0.8349,0.8345,0.8338,0.8333,0.8327,0.8324,0.8317,0.8313,0.8308,0.8303,0.8303,0.8296,0.8295,0.8294,0.8295,0.8293,0.8293,0.8294,0.829,0.829,0.829,0.829,0,0.8381,0.8375,0.8367,0.8362,0.8356,0.835,0.8344,0.8339,0.8333,0.8328,0.8324,0.8319,0.8312,0.8308,0.8303,0.8299,0.8297,0.8295,0.8294,0.8296,0.8296,0.8294,0.8294,0.829,0.829,0.829,0.829,0,0.8379,0.8373,0.8365,0.8356,0.8354,0.835,0.8343,0.8339,0.8335,0.8329,0.8328,0.8321,0.8316,0.831,0.8302,0.83,0.8296,0.8294,0.8298,0.8298,0.8299,0.8299,0.8299,0.8299,0.8294,0.8294,0.8294,0,0.8375,0.837,0.8362,0.8359,0.8355,0.835,0.8346,0.834,0.8337,0.833,0.8327,0.8322,0.8317,0.8309,0.8304,0.8299,0.8298,0.8298,0.8297,0.83,0.8299,0.83,0.8301,0.8298,0.8298,0.8298,0.8298,0,0.837,0.8368,0.8362,0.8357,0.8353,0.8348,0.8343,0.8341,0.8335,0.8331,0.8326,0.8323,0.8316,0.8312,0.8306,0.8303,0.83,0.8299,0.8299,0.8301,0.8304,0.8304,0.83,0.8299,0.8299,0.8299,0.8299,0.8299,0.8367,0.8364,0.8359,0.8354,0.835,0.8346,0.8343,0.8339,0.8335,0.8329,0.8327,0.8322,0.8318,0.8311,0.8308,0.8305,0.8304,0.8303,0.8303,0.8304,0.8305,0.8305,0.8304,0.8304,0.8304,0.8304,0.8304,0,0.8363,0.836,0.8356,0.835,0.8347,0.8345,0.834,0.8338,0.8334,0.833,0.8326,0.8322,0.8318,0.8314,0.831,0.8309,0.8308,0.8308,0.8309,0.8308,0.8305,0.8306,0.8309,0.8309,0.8309,0.8309,0.8309,0.8309,0.8361,0.8356,0.8354,0.8348,0.8345,0.8341,0.8339,0.8336,0.8333,0.8329,0.8326,0.8323,0.832,0.8316,0.8314,0.8313,0.8312,0.8313,0.8312,0.8309,0.8308,0.8308,0.8309,0.8313,0.8313,0.8315,0.8315,0.8315]}]]